Location: Unspecified
(40.4667°N, 0.0000°E)
Time: 01:01:59
(UTC+00:00)

ISS - Pass Details

Date: 22 May 2019
Orbit: 407 x 418 km, 51.6° (Epoch: 27 June)

Event Time Altitude Azimuth Distance (km) Brightness Sun altitude
Rises 23:46:32 0° 312° (NW) 2,366 0.7 -29.0°
Reaches altitude 10° 23:49:06 10° 332° (NNW) 1,503 -0.2 -29.0°
Enters shadow 23:50:53 17° 3° (N) 1,132 -0.8 -29.0°
